カタリナ彗星

C/2017 S6 ( Catalina )

English version
Home page
Updated on January 8, 2018

---------------------------------------------------------------------

・ プロフィール

発見日 2017年9月30日
発見光度 17.9等
発見者 G. J. Leonard (Catalina Sky Survey)

・ 写真集

・ 軌道要素

Epoch 2018 Feb. 11.0 TT = JDT 2458160.5
T 2018 Feb. 26.94175 TT                                 MPCW
q   1.5428546            (2000.0)            P               Q
z  -0.0007940      Peri.  134.69333     +0.93845617     -0.00789235
 +/-0.0000581      Node   130.87546     -0.23733338     -0.74107990
e   1.0012250      Incl.  152.82718     +0.25094399     -0.67137045
From 138 observations 2017 Sept. 30-Nov. 27, mean residual 0".6.

・ 星図

・ 光度変化

        m1 = 12.5 + 5 logΔ + 10.0 log r

---------------------------------------------------------------------

軌道要素はM.P.E.C. 2017-X08に掲載されたものです。
星図はステラナビゲータ Ver.10 (アストロアーツ) で作成したものです。
光度グラフはComet for Windowsで作成したものです。

---------------------------------------------------------------------

Copyright(C) Seiichi Yoshida (comet@aerith.net). All rights reserved.